Location: Go?cza
(50.3372°N, 19.9313°E)
Time: 21:33:48
(UTC+00:00)

USA 267 - Pass Details

Date: 23 May 2024
Orbit: 1100 x 1107 km, 123.0° (Epoch: 21 May)

Event Time Altitude Azimuth Distance (km) Brightness Sun altitude
Rises 00:13:17 0° 61° (ENE) 3,922 7.0 -15.9°
Reaches altitude 10° 00:15:47 10° 59° (ENE) 2,963 6.3 -15.7°
Maximum altitude 00:22:14 66° 340° (NNW) 1,193 3.6 -15.3°
Drops below altitude 10° 00:28:41 10° 259° (W) 2,957 5.2 -14.9°
Enters shadow 00:30:21 - 258° (WSW) 3,590 5.6 -14.7°
